DW0935 Weather Reports


time (UTC)temp
F
wind
direction
speed
knots
gust
knots
rain 1hr
in
rain 24hr
in
rain mn
in
humidity
%
barometer
mb
20260503200020 48 328 8.7 16.5 0.00 0.11 0.01 82 1006.3
20260503194518 47 299 8.7 14.8 0.00 0.11 0.01 86 1006.2
20260503193034 46 297 8.7 18.2 0.00 0.11 0.01 88 1006.3
20260503191516 45 297 9.6 15.6 0.00 0.11 0.01 88 1006.1
20260503190015 45 324 13.9 20.0 0.00 0.11 0.01 89 1006.1
20260503184521 44 329 13.0 22.6 0.00 0.11 0.01 91 1006.2
20260503183013 44 314 15.6 25.2 0.00 0.11 0.01 91 1006.1
20260503181511 44 304 13.0 23.5 0.00 0.11 0.01 91 1005.8
20260503180017 44 299 10.4 17.4 0.00 0.11 0.01 91 1005.6
20260503174510 45 305 12.2 20.0 0.00 0.11 0.01 90 1005.5
20260503173020 46 341 10.4 18.2 0.00 0.11 0.01 86 1005.2
20260503171520 49 295 11.3 20.9 0.00 0.11 0.01 78 1005.1
20260503150104 48 314 13.9 21.7 0.00 0.11 0.01 82 1004.5
20260503081517 46 332 7.8 12.2 0.00 0.10 0.00 96 1006.5
20260503071511 47 318 10.4 14.8 0.00 0.10 0.00 98 1006.8
20260503060121 48 242 0.9 2.6 0.00 0.10 0.00 98 1007.2
20260503054600 48 242 1.7 4.3 0.00 0.10 0.00 98 1007.8
20260503053053 48 235 2.6 5.2 0.00 0.10 0.00 98 1007.9
20260503051552 48 218 3.5 4.3 0.00 0.10 0.00 98 1008.1
20260503050047 48 191 1.7 3.5 0.00 0.10 0.00 98 1008.5
20260503044545 48 170 2.6 6.1 0.00 0.10 0.00 97 1008.9
20260503043044 48 192 2.6 6.1 0.00 0.10 0.00 97 1009.5
20260503041540 48 225 4.3 7.0 0.00 0.10 0.00 97 1009.7
20260503040040 48 202 3.5 7.0 0.00 0.10 0.10 98 1009.8
20260503034535 48 202 4.3 7.0 0.00 0.10 0.10 97 1010.0
20260503033038 48 187 3.5 7.0 0.00 0.10 0.10 97 1010.1
20260503031531 48 205 3.5 7.0 0.00 0.10 0.10 97 1010.2
20260503030029 48 195 3.5 8.7 0.00 0.10 0.10 97 1010.3
20260503024527 48 226 5.2 7.8 0.01 0.10 0.10 97 1010.4
20260503023126 48 194 5.2 8.7 0.01 0.10 0.10 97 1010.6
20260503021524 48 223 6.1 10.4 0.02 0.10 0.10 97 1010.9
20260503020022 48 182 7.0 13.0 0.02 0.10 0.10 97 1011.1
20260503014521 48 201 6.1 10.4 0.02 0.09 0.09 97 1011.3
20260503013021 48 206 6.1 10.4 0.02 0.09 0.09 97 1011.4
20260503011520 47 181 6.1 10.4 0.01 0.08 0.08 97 1011.4
20260503010019 47 171 7.8 13.0 0.02 0.08 0.08 97 1011.3
20260503004519 47 177 7.0 11.3 0.02 0.07 0.07 96 1011.4
20260503003018 47 206 7.0 12.2 0.02 0.07 0.07 96 1011.3
20260503001518 47 197 7.8 12.2 0.03 0.07 0.07 96 1011.4
20260503000018 47 183 5.2 10.4 0.02 0.06 0.06 96 1011.4
20260502234516 47 179 6.1 8.7 0.02 0.05 0.05 96 1011.3
20260502233018 47 176 6.1 9.6 0.02 0.05 0.05 95 1011.4
20260502231516 47 179 2.6 7.8 0.02 0.04 0.04 95 1011.4
20260502230018 47 189 3.5 7.8 0.02 0.04 0.04 95 1011.4
20260502224513 47 187 5.2 7.8 0.01 0.03 0.03 95 1011.3
20260502223013 47 166 3.5 7.0 0.03 0.03 0.03 95 1011.2
20260502221512 47 160 2.6 6.1 0.02 0.02 0.02 94 1011.3
20260502220011 47 156 3.5 7.0 0.02 0.02 0.02 94 1011.2
20260502214510 47 160 4.3 7.8 0.02 0.02 0.02 94 1011.3
20260502213008 48 174 6.1 8.7 0.00 0.00 0.00 93 1011.5
20260502211521 47 166 4.3 8.7 0.00 0.00 0.00 92 1011.5
20260502210005 47 154 3.5 7.0 0.00 0.00 0.00 91 1011.8
20260502204504 48 154 2.6 6.1 0.00 0.00 0.00 91 1011.8
20260502203005 48 156 4.3 7.8 0.00 0.00 0.00 90 1011.9
20260502201501 48 156 5.2 8.7 0.00 0.00 0.00 90 1012.2